K1LBG Weather Reports


time (UTC)temp
C
wind
direction
speed
KPH
gust
KPH
rain 1hr
cm
rain 24hr
cm
rain mn
cm
humidity
%
barometer
mb
20260505041653 11 193 6.4 16.1 0.00 0.00 0.00 81 1011.3
20260505041143 11 175 6.4 16.1 0.00 0.00 0.00 81 1011.3
20260505040631 11 244 6.4 16.1 0.00 0.00 0.00 81 1011.3
20260505040136 11 197 6.4 14.5 0.00 0.00 0.00 80 1011.3
20260505035644 11 220 8.0 14.5 0.00 0.00 0.00 80 1011.3
20260505035130 11 218 8.0 16.1 0.00 0.00 0.00 80 1011.4
20260505034624 11 196 6.4 16.1 0.00 0.00 0.00 79 1011.3
20260505034125 11 186 8.0 14.5 0.00 0.00 0.00 79 1011.2
20260505033632 11 197 6.4 12.9 0.00 0.00 0.00 78 1011.2
20260505033122 11 159 4.8 12.9 0.00 0.00 0.00 77 1011.1
20260505032627 11 219 4.8 16.1 0.00 0.00 0.00 77 1011.1
20260505032138 11 202 9.7 16.1 0.00 0.00 0.00 77 1011.1
20260505031621 11 196 9.7 19.3 0.00 0.00 0.00 75 1011.1
20260505031144 12 187 9.7 19.3 0.00 0.00 0.00 75 1011.2
20260505030630 12 200 6.4 25.7 0.00 0.00 0.00 75 1011.2
20260505030156 12 221 12.9 25.7 0.00 0.00 0.00 75 1011.2
20260505025644 12 199 8.0 17.7 0.00 0.00 0.00 74 1011.2
20260505025124 12 178 11.3 17.7 0.00 0.00 0.00 74 1011.2
20260505024636 12 209 8.0 14.5 0.00 0.00 0.00 74 1011.3
20260505024127 12 213 8.0 14.5 0.00 0.00 0.00 74 1011.3
20260505023633 12 206 6.4 17.7 0.00 0.00 0.00 73 1011.3
20260505023121 12 186 6.4 14.5 0.00 0.00 0.00 72 1011.3
20260505022628 12 236 4.8 14.5 0.00 0.00 0.00 71 1011.3
20260505022150 12 232 8.0 14.5 0.00 0.00 0.00 71 1011.3
20260505021623 12 246 6.4 16.1 0.00 0.00 0.00 70 1011.2
20260505021149 12 202 9.7 19.3 0.00 0.00 0.00 70 1011.2
20260505020638 12 200 9.7 19.3 0.00 0.00 0.00 70 1011.3
20260505020127 12 196 9.7 30.6 0.00 0.00 0.00 69 1011.3
20260505015651 12 217 9.7 29.0 0.00 0.00 0.00 69 1011.3
20260505015134 12 258 9.7 19.3 0.00 0.00 0.00 68 1011.3
20260505014641 13 220 9.7 19.3 0.00 0.00 0.00 68 1011.3
20260505014130 13 228 8.0 20.9 0.00 0.00 0.00 67 1011.3
20260505013636 13 242 6.4 20.9 0.00 0.00 0.00 67 1011.2
20260505013126 13 215 9.7 22.5 0.00 0.00 0.00 66 1011.2
20260505012629 13 194 12.9 22.5 0.00 0.00 0.00 65 1011.1
20260505012158 13 227 8.0 16.1 0.00 0.00 0.00 65 1011.0
20260505011646 13 232 4.8 24.1 0.00 0.00 0.00 64 1011.0
20260505011132 13 215 9.7 24.1 0.00 0.00 0.00 63 1010.9
20260505010643 13 218 8.0 16.1 0.00 0.00 0.00 62 1010.8
20260505010146 13 200 8.0 19.3 0.00 0.00 0.00 61 1010.7
20260505005659 13 245 12.9 20.9 0.00 0.00 0.00 61 1010.6
20260505005145 14 234 9.7 25.7 0.00 0.00 0.00 61 1010.5
20260505004651 14 232 8.0 25.7 0.00 0.00 0.00 60 1010.4
20260505004152 14 201 11.3 25.7 0.00 0.00 0.00 60 1010.2
20260505003642 15 252 12.9 24.1 0.00 0.00 0.00 59 1010.2
20260505003130 15 215 11.3 32.2 0.00 0.00 0.00 57 1010.1
20260505002640 15 213 17.7 33.8 0.00 0.00 0.00 57 1010.0
20260505002142 15 162 11.3 33.8 0.00 0.00 0.00 56 1009.8
20260505001629 15 192 14.5 29.0 0.00 0.00 0.00 55 1009.7
20260505001207 15 204 11.3 40.2 0.00 0.00 0.00 55 1009.5
20260505000640 15 216 16.1 25.7 0.00 0.00 0.00 55 1009.5
20260505000128 15 257 12.9 25.7 0.00 0.00 0.00 54 1009.5
20260504235654 16 217 14.5 25.7 0.00 0.00 0.00 53 1009.4
20260504235128 16 208 11.3 30.6 0.00 0.00 0.00 53 1009.2
20260504234634 16 215 8.0 30.6 0.00 0.00 0.00 52 1009.1
20260504234137 16 234 11.3 35.4 0.00 0.00 0.00 52 1009.1
20260504233627 16 232 11.3 35.4 0.00 0.00 0.00 51 1009.0
20260504233136 16 227 16.1 30.6 0.00 0.00 0.00 51 1008.9
20260504232625 16 211 14.5 32.2 0.00 0.00 0.00 51 1008.8
20260504232131 16 222 12.9 32.2 0.00 0.00 0.00 51 1008.8
20260504231637 17 279 16.1 32.2 0.00 0.00 0.00 50 1008.7
20260504231124 17 204 16.1 37.0 0.00 0.00 0.00 50 1008.7
20260504230628 17 217 16.1 37.0 0.00 0.00 0.00 51 1008.6
20260504230121 17 156 16.1 32.2 0.00 0.00 0.00 50 1008.5
20260504225630 17 227 16.1 24.1 0.00 0.00 0.00 50 1008.5
20260504225133 17 237 11.3 38.6 0.00 0.00 0.00 51 1008.4
20260504224640 17 234 16.1 38.6 0.00 0.00 0.00 50 1008.4
20260504224129 17 205 9.7 33.8 0.00 0.00 0.00 49 1008.2
20260504223653 18 221 14.5 37.0 0.00 0.00 0.00 49 1008.2
20260504223123 18 217 24.1 37.0 0.00 0.00 0.00 48 1008.1
20260504222630 18 195 17.7 40.2 0.00 0.00 0.00 48 1008.1
20260504222149 18 209 25.7 35.4 0.00 0.00 0.00 48 1008.1
20260504221636 18 236 16.1 38.6 0.00 0.00 0.00 48 1008.1
20260504221125 18 263 12.9 38.6 0.00 0.00 0.00 47 1008.0
20260504220649 18 202 12.9 33.8 0.00 0.00 0.00 47 1008.1
20260504220134 18 212 17.7 35.4 0.00 0.00 0.00 46 1008.1
20260504215653 18 242 24.1 40.2 0.00 0.00 0.00 46 1008.1
20260504215142 18 234 24.1 40.2 0.00 0.00 0.00 46 1008.0
20260504214628 19 202 20.9 41.8 0.00 0.00 0.00 45 1008.2
20260504214135 19 255 16.1 32.2 0.00 0.00 0.00 44 1008.1
20260504213625 19 188 14.5 32.2 0.00 0.00 0.00 44 1008.0
20260504213148 19 232 14.5 38.6 0.00 0.00 0.00 43 1008.0
20260504212622 20 242 24.1 43.5 0.00 0.00 0.00 43 1007.9
20260504212132 20 201 16.1 35.4 0.00 0.00 0.00 43 1007.8
20260504211655 20 202 14.5 35.4 0.00 0.00 0.00 42 1007.8
20260504211129 20 196 16.1 37.0 0.00 0.00 0.00 43 1007.8
20260504210637 20 211 22.5 37.0 0.00 0.00 0.00 42 1007.8
20260504210122 20 223 24.1 38.6 0.00 0.00 0.00 41 1007.7
20260504205626 21 245 11.3 37.0 0.00 0.00 0.00 41 1007.7
20260504205151 21 187 17.7 32.2 0.00 0.00 0.00 38 1007.6
20260504204637 21 221 8.0 20.9 0.00 0.00 0.00 39 1007.6
20260504204126 21 226 12.9 37.0 0.00 0.00 0.00 38 1007.6
20260504203705 21 236 14.5 37.0 0.00 0.00 0.00 36 1007.6
20260504203134 21 193 12.9 37.0 0.00 0.00 0.00 37 1007.6
20260504202626 21 244 19.3 37.0 0.00 0.00 0.00 36 1007.7
20260504202149 22 242 17.7 43.5 0.00 0.00 0.00 37 1007.6
20260504201637 22 247 11.3 32.2 0.00 0.00 0.00 37 1007.6
20260504201124 21 256 12.9 40.2 0.00 0.00 0.00 36 1007.7
20260504200627 21 240 19.3 41.8 0.00 0.00 0.00 36 1007.8
20260504200133 21 227 22.5 41.8 0.00 0.00 0.00 38 1007.7
20260504195626 22 236 17.7 43.5 0.00 0.00 0.00 37 1007.8
20260504195148 22 216 22.5 43.5 0.00 0.00 0.00 35 1007.7
20260504194631 22 248 9.7 33.8 0.00 0.00 0.00 36 1007.8
20260504194137 22 306 20.9 33.8 0.00 0.00 0.00 33 1007.8
20260504193644 22 288 14.5 32.2 0.00 0.00 0.00 37 1007.9
20260504193146 22 211 14.5 30.6 0.00 0.00 0.00 37 1007.8
20260504192626 22 247 16.1 30.6 0.00 0.00 0.00 35 1007.8
20260504192121 22 245 12.9 33.8 0.00 0.00 0.00 36 1007.8
20260504191626 22 244 12.9 33.8 0.00 0.00 0.00 34 1007.8
20260504191151 21 248 16.1 33.8 0.00 0.00 0.00 35 1007.8
20260504190644 21 237 20.9 33.8 0.00 0.00 0.00 34 1007.9
20260504190146 21 215 20.9 41.8 0.00 0.00 0.00 35 1007.8
20260504185637 21 263 20.9 41.8 0.00 0.00 0.00 34 1008.0
20260504185139 21 182 20.9 40.2 0.00 0.00 0.00 35 1008.1
20260504184644 21 226 22.5 38.6 0.00 0.00 0.00 34 1008.1
20260504184137 21 236 14.5 49.9 0.00 0.00 0.00 34 1008.1
20260504183625 21 217 22.5 49.9 0.00 0.00 0.00 35 1008.0
20260504183133 21 211 16.1 38.6 0.00 0.00 0.00 36 1008.1
20260504182632 21 265 16.1 46.7 0.00 0.00 0.00 37 1008.1
20260504182214 21 203 17.7 46.7 0.00 0.00 0.00 34 1008.2
20260504181701 21 229 19.3 38.6 0.00 0.00 0.00 35 1008.3
20260504181128 21 202 16.1 40.2 0.00 0.00 0.00 36 1008.2
20260504180632 21 196 11.3 43.5 0.00 0.00 0.00 36 1008.4
20260504180134 21 192 27.4 43.5 0.00 0.00 0.00 40 1008.4
20260504175700 21 221 17.7 45.1 0.00 0.00 0.00 35 1008.5
20260504175130 21 174 22.5 45.1 0.00 0.00 0.00 35 1008.6
20260504174639 21 229 19.3 43.5 0.00 0.00 0.00 33 1008.4
20260504174144 21 246 19.3 40.2 0.00 0.00 0.00 37 1008.5
20260504173631 21 284 16.1 40.2 0.00 0.00 0.00 37 1008.4
20260504173121 21 175 12.9 30.6 0.00 0.00 0.00 36 1008.5
20260504172648 21 244 12.9 41.8 0.00 0.00 0.00 40 1008.5
20260504172135 21 285 17.7 43.5 0.00 0.00 0.00 36 1008.4
20260504171624 21 243 17.7 46.7 0.00 0.00 0.00 37 1008.4
20260504171134 21 202 20.9 46.7 0.00 0.00 0.00 34 1008.4
20260504170635 20 289 17.7 46.7 0.00 0.00 0.00 41 1008.4
20260504170124 20 279 22.5 46.7 0.00 0.00 0.00 35 1008.6
20260504160124 20 240 19.3 43.5 0.00 0.00 0.00 37 1009.5
20260504151139 19 229 14.5 35.4 0.00 0.00 0.00 42 1009.9
20260504150706 18 261 14.5 38.6 0.00 0.00 0.00 42 1009.9
20260504150132 18 275 22.5 41.8 0.00 0.03 0.00 42 1009.9
20260504141145 18 219 16.1 35.4 0.00 0.03 0.00 43 1010.5
20260504140651 18 215 14.5 32.2 0.00 0.03 0.00 44 1010.6
20260504140121 17 236 14.5 27.4 0.00 0.03 0.00 42 1010.7
20260504130621 16 286 4.8 30.6 0.00 0.03 0.00 50 1011.1
20260504130136 16 187 12.9 30.6 0.00 0.03 0.00 49 1011.1
20260504120137 12 303 6.4 20.9 0.00 0.03 0.00 57 1011.4
20260504110633 8 252 8.0 12.9 0.00 0.03 0.00 66 1011.3
20260504110125 7 234 8.0 14.5 0.00 0.03 0.00 66 1011.3
20260504100138 5 227 8.0 17.7 0.00 0.03 0.00 77 1011.2
20260504090139 5 240 3.2 6.4 0.00 0.03 0.00 81 1011.0
20260504081653 5 248 1.6 4.8 0.00 0.03 0.00 76 1010.7
20260504081141 6 248 1.6 4.8 0.00 0.03 0.00 77 1010.8
20260504080631 6 248 3.2 6.4 0.00 0.03 0.00 76 1010.9
20260504080120 6 248 3.2 6.4 0.00 0.03 0.00 75 1010.9
20260504070142 6 248 0.0 4.8 0.00 0.03 0.00 71 1010.7
20260504060147 6 268 1.6 8.0 0.00 0.03 0.00 66 1010.8
20260504050635 4 255 3.2 12.9 0.00 0.03 0.00 71 1010.8
20260504050140 4 238 3.2 12.9 0.00 0.03 0.00 70 1010.8
20260504045627 4 267 3.2 6.4 0.00 0.03 0.00 69 1010.9
20260504045212 4 246 1.6 6.4 0.00 0.03 0.00 69 1010.8